This demonstration page uses our WeatherBlox Daily Observations layout. Learn more.

Left ArrowRight Arrow

Hourly Observations for October 13, 2021

Temp ( °F °C ) Dew Point ( °F °C ) Humidity (%) Winds ( mph kmh ) Pressure ( in mb ) Visibility ( mi km ) Precip ( " mm )
12:53 am 00:53 Cloudy 71 21.7 67 19.4 87 87 S 23 37 29.59 1002 10 16 N/A
1:25 am 01:25 Cloudy 72 22.2 68 20 87 87 SSE 24 39 29.54 1000 10 16 N/A
1:53 am 01:53 Cloudy 72 22.2 68 20 87 87 SSE 23 37 29.54 1001 10 16 N/A
2:53 am 02:53 Cloudy 73 22.8 68 20 84 84 S 22 35 29.57 1001 10 16 N/A
3:07 am 03:07 Cloudy with Thunderstorms 73 22.8 68 20 84 84 S 22 35 29.57 1001 10 16 N/A
3:15 am 03:15 Cloudy with Thunderstorms 64 17.8 61 16.1 90 90 W 33 54 29.64 1004 2 3 0.00 0.00
3:53 am 03:53 Cloudy with Strong Thunderstorms 61 16.1 61 16.1 100 100 SSW 18 30 29.62 1003 2 2 0.71 18.03
4:00 am 04:00 Cloudy with Thunderstorms 61 16.1 61 16.1 100 100 SSW 13 20 29.61 1003 3 5 0.09 2.29
4:53 am 04:53 Cloudy with Thunderstorms 63 17.2 61 16.1 93 93 S 14 22 29.62 1003 10 16 0.20 5.08
5:21 am 05:21 Cloudy 62 16.7 61 16.1 96 96 S 14 22 29.61 1003 10 16 0.02 0.51
5:47 am 05:47 Cloudy 63 17 61 16 94 94 S 13 20 29.62 1003 10 16 0.02 0.51
5:53 am 05:53 Cloudy 62 16.7 61 16.1 96 96 S 13 20 29.61 1003 10 16 0.02 0.51
6:53 am 06:53 Mostly Cloudy 61 16.1 60 15.6 97 97 SSW 15 24 29.63 1003 10 16 N/A
7:53 am 07:53 Cloudy 60 15.6 59 15 96 96 SSW 13 20 29.66 1004 10 16 N/A
8:53 am 08:53 Partly Cloudy 60 15.6 59 15 96 96 SSW 12 19 29.69 1005 10 16 N/A
9:53 am 09:53 Mostly Sunny 63 17.2 57 13.9 81 81 WSW 12 19 29.70 1006 10 16 N/A
10:53 am 10:53 Mostly Sunny 65 18.3 53 11.7 66 66 W 10 17 29.71 1006 10 16 N/A
11:53 am 11:53 Mostly Sunny 67 19.4 45 7.2 45 45 WNW 12 19 29.74 1007 10 16 N/A
12:53 pm 12:53 Mostly Sunny 68 20 46 7.8 45 45 WNW 10 17 29.74 1007 10 16 N/A
1:53 pm 13:53 Mostly Sunny 68 20 47 8.3 47 47 NNW 9 15 29.74 1007 10 16 N/A
2:53 pm 14:53 Partly Cloudy 69 20.6 44 6.7 41 41 N 5 7 29.72 1007 10 16 N/A
3:53 pm 15:53 Mostly Cloudy 69 20.6 44 6.7 41 41 N N/A 29.74 1007 10 16 N/A
4:53 pm 16:53 Mostly Cloudy 70 21.1 43 6.1 38 38 N N/A 29.75 1007 10 16 N/A
5:53 pm 17:53 Mostly Cloudy 69 20.6 43 6.1 39 39 N N/A 29.75 1007 10 16 N/A
6:53 pm 18:53 Mostly Cloudy 66 18.9 43 6.1 43 43 N N/A 29.76 1008 10 16 N/A
7:53 pm 19:53 Mostly Cloudy 60 15.6 49 9.4 67 67 N N/A 29.80 1009 10 16 N/A
8:53 pm 20:53 Mostly Cloudy 62 16.7 45 7.2 54 54 NNE 7 11 29.80 1009 10 16 N/A
9:53 pm 21:53 Mostly Cloudy 61 16.1 46 7.8 58 58 NNE 5 7 29.82 1010 10 16 N/A
10:53 pm 22:53 Mostly Cloudy 59 15 48 8.9 67 67 NE 6 9 29.83 1010 10 16 N/A
11:53 pm 23:53 Cloudy 59 15 47 8.3 64 64 NE 5 7 29.83 1010 10 16 N/A

Powered by AerisWeather